Simultaneous Nadir Overpasses (SNOs) Predictions

Prediction of SNOs between NOAA-19 and TERRA Satellite Orbit:

Table of predicted SNOs for the next 14.0 days since TLE Epoch: 9/20/2014
Index Date (NOAA-19) Time (NOAA-19) Lat,Lon (NOAA-19) SZA (NOAA-19 ) Date (TERRA) Time (TERRA) Lat,Lon (TERRA) SZA (TERRA ) Distance(km) Time Diff (sec)
1 09/21/2014 22:42:31 70.95,-158.62 70.44 09/21/2014 22:43:00 70.95,-158.64 70.44 0.76 29
2 09/21/2014 23:33:25 -70.82, 8.87 109.67 09/21/2014 23:32:30 -70.83, 8.82 109.67 2.09 55
3 09/24/2014 03:26:17 70.98, 130.42 71.33 09/24/2014 03:27:14 71.01, 130.40 71.36 3.25 57
4 09/24/2014 04:17:11 -70.87, -62.12 108.77 09/24/2014 04:16:44 -70.90, -62.14 108.75 3.17 27
5 09/26/2014 08:10:12 71.48, 58.61 72.68 09/26/2014 08:11:22 71.38, 59.93 72.61 48.24 70
6 09/26/2014 09:00:57 -70.93,-133.13 107.85 09/26/2014 09:00:58 -70.95,-133.13 107.83 2.37 1
7 09/26/2014 09:51:46 69.96, 35.67 71.25 09/26/2014 09:50:40 70.02, 33.14 71.22 96.49 66
8 09/28/2014 13:44:43 -70.99, 155.84 106.93 09/28/2014 13:45:12 -70.98, 155.86 106.94 1.22 29
9 09/28/2014 14:35:48 70.85, -36.69 72.95 09/28/2014 14:34:39 70.87, -36.67 72.96 2.43 69
10 09/30/2014 18:28:28 -71.02, 84.90 106.05 09/30/2014 18:29:26 -71.00, 84.83 106.06 2.84 58
11 09/30/2014 19:19:33 70.92,-107.71 73.87 09/30/2014 19:18:52 70.89,-107.70 73.84 3.31 41
12 10/02/2014 23:12:22 -71.56, 13.01 104.67 10/02/2014 23:13:31 -71.44, 14.47 104.75 53.26 69
13 10/03/2014 00:03:18 70.94,-178.67
